Location: *
(45.9500°N, 9.0833°E)
Time: 06:16:15
(UTC+00:00)

SR - Pass Details

Date: 16 June 2021
Orbit: 577 x 878 km, 66.7° (Epoch: 24 July)

Event Time Altitude Azimuth Distance (km) Brightness Sun altitude
Rises 19:52:59 0° 290° (WNW) 3,469 ? -5.7°
Reaches altitude 10° 19:57:47 10° 324° (NW) 2,501 ? -6.3°
Maximum altitude 19:59:24 11° 341° (NNW) 2,408 ? -6.5°
Drops below altitude 10° 20:01:00 10° 357° (N) 2,468 ? -6.7°
Sets 20:05:38 0° 32° (NNE) 3,334 ? -7.3°
